Simultaneous Nadir Overpasses (SNOs) Predictions

Prediction of SNOs between NPP and TERRA Satellite Orbit:

Table of predicted SNOs for the next 14.0 days since TLE Epoch: 11/3/2011
Index Date (NPP) Time (NPP) Lat,Lon (NPP) SZA (NPP ) Date (TERRA) Time (TERRA) Lat,Lon (TERRA) SZA (TERRA ) Distance(km) Time Diff (sec)
1 11/05/2011 03:13:54 68.56, 130.07 84.01 11/05/2011 03:14:47 68.58, 130.13 84.03 3.28 53
2 11/05/2011 04:04:33 -68.41, -62.41 96.13 11/05/2011 04:04:18 -68.41, -62.44 96.14 1.50 15
3 11/05/2011 04:55:03 67.80, 105.69 83.28 11/05/2011 04:53:53 67.86, 104.55 83.31 48.30 70
4 11/07/2011 21:59:05 -68.49, 28.86 95.23 11/07/2011 21:59:38 -68.47, 28.80 95.25 3.38 33
5 11/07/2011 22:49:45 68.37,-163.67 84.67 11/07/2011 22:49:05 68.36,-163.68 84.65 1.41 40
6 11/10/2011 15:04:07 69.52, -48.74 86.57 11/10/2011 15:05:13 69.44, -46.42 86.53 90.77 66
7 11/10/2011 15:54:31 -68.50, 119.98 94.43 11/10/2011 15:54:58 -68.50, 120.00 94.44 1.07 27
8 11/10/2011 16:45:11 68.35, -72.49 85.43 11/10/2011 16:44:26 68.33, -72.55 85.41 2.78 45
9 11/13/2011 09:00:07 68.50, 43.57 86.32 11/13/2011 09:00:49 68.49, 43.53 86.30 2.24 42
10 11/13/2011 09:50:48 -68.36,-148.92 93.82 11/13/2011 09:50:19 -68.38,-148.97 93.81 2.93 29
11 11/16/2011 01:15:59 68.83, 159.20 87.33 11/16/2011 01:17:11 68.73, 159.72 87.24 24.01 72
12 11/16/2011 02:06:36 -68.44, -32.98 93.05 11/16/2011 02:06:44 -68.45, -32.99 93.04 1.07 8
13 11/16/2011 02:57:18 68.30, 134.52
